Home > Weather > Naples > Past weeks

Flag for Italy Past Weather in Naples, Italy — Yesterday and Last 2 Weeks

Now
75 °F

Clear.


Feels Like: 77 °F
Forecast: 72 / 90 °F
Wind: No wind

Location: Naples / Capodichino

Current Time: Jul 30, 2016 at 1:50:34 AM

Latest Report: Jul 30, 2016 at 1:20 AM


Visibility: 10 mi

Pressure: 30.01 "Hg

Humidity: 69%

Dew Point: 64 °F

Location of NaplesLocation

Past Weather in Naples — Graph

°F

Naples Temperature Yesterday

Maximum temperature yesterday: 88 °F (at 2:20 PM)
Minimum temperature yesterday: 72 °F (at 4:20 AM)
Average temperature yesterday: 80 °F

High & Low Weather Summary for the Past Weeks

 TemperatureHumidityPressure
High95 °F (Jul 20, 2:20 PM)89% (Jul 28, 1:20 AM)30.15 "Hg (Jul 28, 1:20 AM)
Low61 °F (Jul 15, 10:50 AM)17% (Jul 23, 5:50 PM)29.77 "Hg (Jul 15, 2:50 PM)
Average78 °F57%29.99 "Hg
* Reported Jul 15 12:20 AM — Jul 30 12:50 AM, Naples, Weather by CustomWeather, © 2016

Note: Actual official high and low records may vary slightly from our data, if they occured in-between our weather recording intervals... More about our weather records

Advertising

Naples Weather History for the Previous 24 Hours

Scroll right to see more
 ConditionsComfort  
Time TempWeatherWind HumidityBarometerVisibility
12:50 AM
Sat, Jul 30
77 °FClear.1 mph69%30.01 "Hg10 mi
12:20 AM77 °FClear.1 mph69%30.01 "Hg10 mi
11:50 PM
Fri, Jul 29
77 °FClear.1 mph65%30.01 "Hg10 mi
11:20 PM79 °FClear.2 mph58%29.98 "Hg10 mi
10:50 PM79 °FClear.2 mph61%29.98 "Hg10 mi
10:20 PM79 °FPassing clouds.3 mph61%29.98 "HgN/A
9:50 PM81 °FPassing clouds.3 mph58%29.98 "HgN/A
9:20 PM81 °FPassing clouds.3 mph58%29.98 "HgN/A
8:50 PM79 °FSunny.6 mph61%29.98 "Hg10 mi
8:20 PM81 °FPassing clouds.6 mph58%29.98 "HgN/A
7:50 PM82 °FPassing clouds.7 mph51%29.98 "HgN/A
7:20 PM82 °FPassing clouds.8 mph51%29.98 "HgN/A
6:50 PM84 °FPassing clouds.10 mph48%29.95 "HgN/A
6:20 PM86 °FPassing clouds.10 mph43%29.95 "HgN/A
5:50 PM86 °FPassing clouds.10 mph43%29.95 "HgN/A
4:50 PM88 °FPassing clouds.12 mph40%29.95 "HgN/A
4:20 PM88 °FPassing clouds.12 mph40%29.98 "HgN/A
3:50 PM88 °FPassing clouds.12 mph38%29.98 "HgN/A
3:20 PM88 °FPassing clouds.12 mph38%29.98 "HgN/A
2:50 PM88 °FPassing clouds.9 mph38%29.98 "HgN/A
2:20 PM88 °FPassing clouds.9 mph46%29.98 "HgN/A
1:50 PM86 °FPassing clouds.10 mph52%29.98 "HgN/A
1:20 PM86 °FPassing clouds.9 mph55%29.98 "HgN/A
12:50 PM84 °FPassing clouds.9 mph58%29.98 "HgN/A
12:20 PM84 °FPassing clouds.8 mph62%29.98 "HgN/A
11:20 AM84 °FWarm.3 mph58%29.98 "HgN/A
10:50 AM86 °FPassing clouds.3 mph49%29.98 "HgN/A
10:20 AM82 °FPassing clouds.2 mph58%29.98 "HgN/A
9:50 AM81 °FPassing clouds.2 mph62%29.98 "HgN/A
9:20 AM81 °FPassing clouds.2 mph66%29.98 "HgN/A
8:50 AM79 °FPassing clouds.3 mph70%29.98 "HgN/A
8:20 AM77 °FPassing clouds.3 mph69%29.98 "HgN/A
7:50 AM75 °FSunny.2 mph74%29.98 "Hg10 mi
7:20 AM73 °FSunny.2 mph74%29.98 "Hg10 mi
6:50 AM72 °FClear.3 mph78%29.98 "Hg10 mi
6:20 AM72 °FClear.2 mph78%29.98 "Hg10 mi
5:50 AM72 °FClear.No wind73%29.98 "Hg10 mi
5:20 AM72 °FClear.1 mph73%29.98 "Hg10 mi
4:50 AM72 °FClear.2 mph73%29.98 "Hg10 mi
4:20 AM72 °FClear.1 mph73%29.98 "Hg10 mi
3:50 AM73 °FClear.No wind74%29.95 "Hg10 mi
3:20 AM73 °FClear.No wind74%29.95 "Hg10 mi
2:50 AM73 °FClear.1 mph78%29.95 "Hg10 mi
2:20 AM73 °FClear.No wind78%29.98 "Hg10 mi
1:50 AM75 °FClear.No wind78%29.98 "Hg10 mi
1:20 AM75 °FClear.No wind74%29.98 "Hg10 mi
Weather by CustomWeather, © 2016

See weather overviewHow to use our weather pages